Temperature
5 6 5 5 6 5 6 6 6 6 6 7 8 8 9 9 9 9 10 10 10 10 10 9 9 8 7 7 6 5 5 5 4 4 4 4 3 3 3 3 3 3 3 3
5 6 5 5 5 5 5 6 6 6 6 7 8 9 9 9 9 9 10 10 10 10 10 9 9 8 7 6 5 5 4 4 4 3 3 3 3 3 3 3 3 3 3 3
5 5 6 5 5 5 5 5 5 6 7 8 7 7 9 10 10 10 11 11 11 11 10 10 9 8 7 6 5 4 4 3 3 2 2 2 2 2 2 2 2 2 2 2
4 5 5 6 7 6 5 6 5 6 6 7 7 9 10 10 10 11 11 11 11 11 10 10 8 7 6 5 4 4 3 3 2 2 2 2 2 1 1 1 1 1 2 2
4 4 4 5 6 6 5 5 6 6 6 7 7 7 8 10 10 10 11 11 11 10 10 9 8 7 6 5 4 3 3 3 2 2 2 1 1 1 1 1 1 1 1 1
4 5 5 6 7 7 6 6 7 6 5 6 6 5 7 10 10 10 10 10 10 10 9 8 8 7 6 5 4 3 3 2 2 2 1 1 1 1 1 1 1 1 1 1
4 5 4 5 6 7 6 7 8 7 7 6 5 6 8 9 9 9 9 9 9 9 8 8 7 6 5 4 4 3 2 2 2 1 1 1 1 1 1 1 1 1 1 1
4 5 5 6 6 6 6 8 8 8 8 7 7 8 8 8 9 9 9 8 8 8 7 7 6 5 5 4 3 2 2 2 1 1 1 1 1 1 1 1 1 1 1 0
4 5 6 7 7 8 8 8 8 8 8 8 8 8 8 8 8 8 8 7 7 7 6 6 5 5 4 4 3 2 2 1 1 1 1 1 1 1 1 1 1 1 0 0
3 4 5 7 7 8 8 8 8 8 8 8 8 8 8 8 7 7 7 7 7 6 6 6 5 5 4 3 3 2 2 2 1 1 1 1 1 1 1 1 1 0 0 0
3 4 5 7 8 8 8 8 8 8 8 8 7 7 7 7 7 7 7 6 6 6 6 5 5 4 4 3 3 2 2 2 1 1 1 1 1 1 1 0 0 0 0 -0
4 5 4 6 7 7 7 7 7 7 7 7 7 7 7 7 6 6 6 6 6 6 5 5 4 4 4 3 3 2 2 2 2 1 1 1 1 1 0 0 0 0 -0 -0
4 4 5 5 6 6 6 6 6 6 6 6 6 6 6 6 6 6 6 6 6 5 5 5 4 4 3 3 3 2 2 2 2 1 1 1 1 0 0 0 -0 -0 -0 -0
4 4 4 4 5 5 5 5 5 5 6 5 5 6 5 6 5 5 5 5 5 5 5 4 4 4 3 3 3 2 2 2 1 1 1 0 0 0 -0 -0 -0 -0 -1 -1
3 3 3 3 4 4 4 4 4 5 5 5 5 5 5 5 5 4 4 4 4 4 4 4 4 4 3 3 2 2 2 2 1 1 1 0 -0 -0 -0 -0 -0 -1 -1 -1
2 2 2 3 3 3 3 3 3 4 3 3 3 4 4 4 4 4 4 4 4 4 4 4 4 3 3 3 2 2 2 2 1 1 0 0 -0 -0 -1 -1 -1 -1 -1 -1
1 1 2 2 2 2 2 2 3 2 3 3 3 3 3 3 3 3 3 3 3 3 3 3 3 3 2 2 2 2 2 1 1 1 0 0 -0 -0 -1 -1 -1 -1 -1 -2
0 1 1 1 1 1 2 2 2 2 2 2 2 2 2 2 2 2 2 2 2 2 2 2 2 2 2 2 2 1 1 1 1 1 0 0 -0 -0 -1 -1 -1 -2 -2 -2
-0 0 0 1 1 1 1 1 1 1 1 1 1 1 1 1 1 1 1 1 1 1 1 1 1 1 1 1 1 1 1 0 0 0 -0 -0 -1 -1 -1 -1 -2 -2 -2 -2
-1 -1 -0 -0 0 0 0 0 0 0 0 0 0 0 0 0 0 0 0 0 0 0 0 1 1 1 1 1 1 0 0 -0 -0 -0 -1 -1 -1 -1 -1 -2 -2 -2 -2 -3
-1 -1 -1 -1 -1 -1 -0 -0 0 0 -0 -0 -0 -0 -0 -1 -1 -1 -0 -0 -0 -1 -0 -0 -0 -0 -0 -0 -0 -0 -0 -1 -1 -1 -1 -1 -2 -2 -2 -2 -3 -3 -3 -3
-1 -1 -1 -1 -1 -1 -1 -1 -1 -0 -1 -1 -1 -1 -1 -1 -1 -1 -1 -1 -1 -1 -1 -1 -1 -1 -1 -1 -1 -1 -1 -1 -1 -2 -2 -2 -2 -2 -3 -3 -3 -3 -4 -4
-2 -2 -2 -2 -1 -1 -1 -1 -1 -1 -1 -1 -1 -1 -2 -2 -2 -2 -2 -2 -2 -2 -2 -1 -1 -2 -2 -2 -2 -2 -2 -2 -2 -2 -3 -3 -3 -3 -3 -3 -3 -4 -4 -4
-1 -2 -2 -2 -1 -1 -1 -1 -1 -1 -1 -1 -2 -2 -2 -2 -2 -2 -2 -2 -2 -2 -2 -2 -2 -2 -2 -2 -3 -3 -3 -3 -3 -3 -3 -3 -4 -4 -4 -4 -4 -4 -4 -4
-1 -1 -1 -1 -1 -1 -1 -1 -1 -1 -2 -2 -2 -2 -2 -2 -2 -2 -3 -3 -3 -3 -3 -3 -3 -3 -3 -3 -3 -3 -4 -4 -4 -4 -4 -4 -4 -4 -4 -4 -4 -5 -5 -5
-1 -1 -1 -1 -1 -1 -1 -1 -1 -1 -2 -2 -2 -2 -2 -2 -3 -3 -3 -3 -3 -3 -3 -3 -3 -3 -3 -3 -4 -4 -4 -4 -4 -4 -5 -5 -5 -5 -5 -5 -5 -5 -5 -5
-1 -1 -1 -1 -1 -1 -1 -2 -2 -2 -2 -2 -2 -2 -2 -3 -3 -3 -3 -3 -3 -3 -4 -4 -4 -4 -4 -4 -4 -4 -4 -4 -5 -5 -5 -5 -5 -5 -5 -5 -5 -5 -5 -5
Wind_Speed
3 2 4 6 8 11 13 11 10 9 10 12 9 9 7 6 6 7 8 9 10 10 9 8 8 7 7 6 6 6 6 6 5 5 5 5 5 5 5 6 6 6 6 6
1 2 4 5 8 11 13 12 14 14 17 11 9 6 6 8 8 10 10 11 10 10 10 10 10 9 8 7 7 7 7 6 6 6 6 5 5 5 5 5 6 6 7 6
2 2 1 7 10 13 8 9 10 16 16 7 8 10 11 11 11 13 13 12 11 12 12 12 11 10 10 9 7 7 7 7 7 6 6 6 6 5 5 5 5 6 6 6
2 1 7 8 3 7 9 10 12 11 10 9 12 11 9 10 12 12 12 11 11 10 10 9 9 9 9 9 8 8 7 7 7 7 6 6 6 5 4 4 4 4 4 5
3 3 7 8 4 6 7 8 8 13 15 12 8 5 7 9 10 11 10 9 8 8 8 9 11 11 10 9 8 8 8 8 8 7 7 7 6 5 4 4 3 2 2 3
4 3 6 6 3 3 3 5 5 5 10 8 4 4 7 5 7 6 5 4 5 7 7 10 10 11 11 10 9 9 8 8 8 7 7 7 6 5 3 3 3 3 2 2
5 5 7 7 4 4 2 5 4 3 5 4 7 7 3 1 3 3 4 4 6 8 7 8 10 11 10 10 10 8 7 8 7 7 7 6 5 4 4 4 3 2 1 0
5 6 8 4 4 6 7 4 4 4 3 3 4 1 1 2 3 4 5 5 6 7 6 7 9 10 10 9 7 8 8 8 7 7 6 6 6 5 5 5 4 3 2 2
8 8 5 3 6 5 3 4 4 3 2 1 2 1 2 2 3 3 4 4 5 6 6 6 7 9 9 8 8 9 9 8 8 7 6 6 6 6 5 4 4 3 3 3
4 7 7 6 6 5 5 5 5 3 2 2 2 2 3 3 3 3 4 4 5 6 6 7 7 7 7 8 10 10 9 8 7 7 7 6 5 6 5 5 5 4 4 5
5 7 7 6 3 4 4 3 2 1 1 1 2 2 2 2 2 3 4 4 5 6 7 7 8 8 7 9 10 10 9 8 8 7 7 7 6 6 6 6 6 6 6 5
5 4 4 6 6 4 2 3 2 1 0 1 1 1 1 1 1 2 3 4 5 6 6 7 8 8 8 10 11 10 9 9 7 7 6 6 6 5 9 9 11 12 10 8
5 5 5 7 6 4 2 2 2 1 0 1 2 1 0 0 0 1 2 3 5 6 6 6 7 8 9 10 11 11 10 9 7 7 7 7 6 6 5 6 10 11 11 11
5 5 5 4 4 3 2 2 2 3 3 2 2 2 2 1 1 2 3 4 4 5 5 6 7 8 9 10 11 11 10 10 10 8 8 7 8 7 6 5 5 5 8 12
6 4 5 4 3 3 2 2 2 2 2 3 3 2 2 2 3 4 4 3 3 4 4 5 7 7 7 10 11 11 10 8 8 7 7 7 7 7 6 7 6 5 4 5
8 5 4 3 3 2 1 1 1 1 1 2 3 3 3 3 4 4 3 2 2 4 4 5 7 6 6 9 10 9 9 12 11 8 8 8 7 7 7 7 7 7 7 6
6 6 4 4 3 2 1 1 1 1 1 2 3 4 4 3 3 4 4 4 4 4 4 4 5 4 5 8 9 8 7 9 14 9 8 8 8 9 8 8 8 8 8 8
6 6 5 4 4 3 1 0 1 1 2 2 3 3 3 3 4 5 5 5 4 3 3 4 4 3 4 6 7 6 7 7 8 9 8 8 8 8 8 8 9 9 7 7
4 3 3 2 1 1 1 2 2 2 2 2 3 3 3 3 4 5 5 4 4 4 5 5 6 3 3 5 6 5 6 7 7 7 7 10 9 8 8 8 8 8 7 6
4 4 3 3 4 3 2 2 2 2 2 3 3 3 4 4 5 5 4 3 2 4 6 6 4 3 3 4 5 4 6 7 7 7 7 7 8 8 8 8 8 7 7 7
4 4 3 3 3 3 2 2 2 2 3 3 3 3 4 5 5 4 4 4 4 5 6 7 4 3 3 3 4 3 5 6 6 6 7 7 7 8 8 8 8 7 7 7
3 3 3 2 2 2 2 2 2 2 2 3 3 3 4 5 5 5 3 3 5 9 6 4 4 5 5 4 2 3 4 5 5 5 6 6 7 7 7 7 7 7 7 6
3 2 3 3 2 3 2 2 2 2 2 3 3 3 4 4 4 4 4 4 5 9 6 4 7 8 8 3 2 3 4 4 5 5 6 6 7 7 7 7 7 7 6 6
3 3 3 3 2 3 4 3 3 2 3 3 3 3 3 3 3 2 3 7 9 9 5 7 10 9 7 2 2 3 4 4 4 5 5 5 6 6 6 6 6 6 6 7
4 4 4 4 4 4 4 4 3 3 3 3 4 3 2 2 3 4 4 5 8 8 5 7 9 8 4 3 2 3 3 4 5 4 5 5 5 5 6 5 6 6 5 6
4 5 5 5 5 4 4 3 3 3 3 3 3 3 2 2 3 3 3 4 6 7 5 4 5 5 4 3 3 3 3 4 5 4 4 4 5 5 5 5 6 6 5 6
5 5 4 5 5 5 4 4 5 5 4 4 4 3 3 3 3 3 3 4 4 4 4 4 4 4 4 4 4 3 3 3 3 4 4 4 4 5 5 6 5 5 5 5
Wind_Direction
226 206 169 201 205 197 208 217 226 239 237 250 260 268 266 236 211 201 202 198 197 195 190 183 178 175 169 162 156 149 142 138 133 126 114 105 97 89 79 72 69 63 63 62
268 224 206 236 229 215 222 228 237 253 261 248 247 245 242 227 211 213 216 212 206 198 190 189 186 179 172 168 162 154 151 149 144 137 129 120 112 103 90 78 70 65 59 55
252 290 338 263 226 210 209 209 207 237 250 243 239 238 234 226 216 218 220 214 206 202 199 195 187 178 176 170 160 158 158 157 157 152 143 138 131 115 102 90 81 70 57 53
173 126 241 245 237 203 219 240 226 242 258 244 239 244 241 225 217 222 221 214 208 201 194 183 172 167 161 158 160 163 164 164 163 157 150 144 137 128 118 107 94 81 65 55
169 228 277 292 263 191 201 265 237 240 257 260 260 272 270 234 216 220 219 212 204 189 175 163 165 162 156 160 163 167 172 171 169 164 158 155 152 144 133 125 113 102 90 69
171 210 250 257 273 179 141 286 272 239 258 262 191 225 263 239 203 205 193 175 163 148 145 157 162 157 159 166 171 179 178 173 169 165 164 164 160 151 143 141 143 137 113 80
202 229 263 258 259 137 182 258 290 272 269 238 203 222 273 71 111 125 123 124 131 137 149 160 157 158 165 171 184 179 166 161 163 165 167 162 156 152 149 149 150 156 155 327
187 218 252 248 143 182 228 269 288 294 293 232 224 242 87 101 108 114 113 119 131 137 143 150 159 164 172 183 176 159 158 163 167 166 168 163 159 160 158 160 167 184 207 259
199 221 245 228 217 244 243 265 277 283 301 195 180 187 149 136 136 138 141 145 145 147 150 160 170 173 181 179 161 160 164 171 172 169 169 166 171 173 171 176 186 202 212 239
253 267 269 268 262 267 247 246 266 265 254 189 193 183 173 163 167 169 168 169 163 160 170 182 185 186 183 168 166 167 174 177 176 176 176 177 181 184 184 190 199 209 217 232
259 282 306 299 285 288 286 275 282 293 250 196 176 169 175 181 192 193 188 184 183 188 195 196 189 192 182 171 170 176 180 182 184 185 184 189 195 201 200 205 201 204 213 215
244 260 261 282 308 313 301 298 286 265 338 33 102 174 159 200 207 199 198 192 200 207 208 201 192 195 188 180 179 181 187 190 191 189 190 192 197 219 233 225 232 232 226 217
268 297 275 278 303 317 306 324 338 2 24 22 34 39 56 297 272 224 215 210 218 222 219 208 200 201 194 186 186 191 194 193 191 192 193 194 196 205 224 235 238 239 237 235
286 290 285 291 304 333 354 6 38 43 43 47 37 36 35 13 345 299 270 255 242 231 222 212 210 213 198 189 192 198 198 197 195 197 196 197 201 206 207 211 225 240 240 241
305 288 271 288 312 331 349 20 33 23 24 24 24 23 11 340 310 298 292 284 259 240 233 222 223 224 198 191 196 200 200 200 199 196 196 199 200 202 208 214 222 227 229 245
301 296 285 277 278 297 331 17 0 323 351 355 355 345 332 316 305 307 311 299 260 255 249 237 238 234 203 196 198 202 206 206 197 196 197 200 201 205 210 216 222 226 230 229
295 289 280 271 265 267 254 231 226 283 344 345 331 327 332 335 329 328 324 312 281 270 264 251 255 245 212 202 201 204 204 206 203 201 203 204 204 209 212 214 220 226 231 227
289 284 274 263 256 249 237 91 62 37 10 338 336 346 350 344 330 322 320 319 315 309 303 287 276 255 223 210 206 204 200 201 201 205 205 207 210 211 212 215 220 227 232 233
337 339 345 358 6 71 95 75 52 31 11 358 357 353 345 339 331 325 325 332 334 323 322 313 305 275 243 225 210 205 203 203 206 208 207 214 217 214 214 217 222 223 224 222
350 359 12 27 39 50 57 47 41 27 6 359 360 357 352 346 340 333 329 324 325 306 310 317 313 292 267 245 219 208 208 209 211 211 209 212 215 216 217 221 224 224 224 225
344 356 9 22 28 30 24 12 10 2 356 1 359 345 334 331 335 332 328 323 328 326 322 325 322 302 281 266 233 218 215 217 216 214 213 216 219 221 221 222 223 225 225 227
326 332 342 353 355 346 347 350 345 339 344 346 345 340 336 335 335 329 310 304 320 331 331 317 309 305 304 286 238 226 225 225 224 219 217 219 222 225 225 222 224 227 226 226
297 298 303 304 304 303 308 312 310 311 312 316 322 324 321 315 313 316 319 324 323 328 331 312 315 315 311 294 248 238 234 232 231 227 225 224 226 227 227 227 227 227 226 227
278 281 283 285 288 281 282 279 277 278 278 282 282 286 294 307 307 288 291 315 326 328 323 320 327 323 320 308 265 248 241 238 238 236 232 229 227 228 229 229 230 228 228 231
264 266 267 268 268 266 266 271 276 272 274 275 276 274 265 253 268 294 303 309 323 329 324 326 330 331 332 306 285 269 257 248 247 241 233 233 233 232 231 229 230 230 231 233
254 256 256 252 252 255 255 252 257 263 264 276 280 267 265 270 279 292 303 311 317 327 327 320 324 329 326 313 299 289 278 277 276 262 242 237 237 237 236 233 234 235 237 238
259 257 260 266 258 242 236 237 245 253 246 251 268 267 266 275 284 296 307 312 317 318 315 318 322 323 320 316 310 300 290 282 274 265 256 247 242 241 240 238 238 237 237 239
Height
1490 1489 1491 1492 1492 1494 1495 1494 1496 1490 1489 1480 1478 1477 1476 1476 1477 1479 1480 1482 1484 1487 1489 1491 1492 1493 1494 1495 1495 1495 1495 1495 1496 1496 1496 1496 1496 1496 1495 1495 1495 1494 1494 1493
1490 1488 1490 1491 1489 1490 1489 1488 1487 1485 1479 1473 1473 1474 1473 1473 1474 1475 1476 1478 1481 1483 1485 1487 1488 1490 1491 1491 1492 1492 1492 1493 1493 1493 1493 1494 1494 1494 1494 1494 1494 1494 1493 1493
1492 1489 1487 1490 1481 1481 1482 1480 1480 1478 1469 1468 1470 1469 1468 1468 1469 1470 1472 1474 1476 1479 1481 1482 1484 1486 1487 1488 1488 1489 1489 1490 1490 1491 1491 1492 1492 1493 1493 1493 1493 1493 1493 1493
1492 1491 1493 1478 1471 1472 1474 1472 1471 1468 1464 1463 1462 1461 1462 1463 1463 1464 1467 1469 1472 1474 1476 1478 1480 1482 1483 1484 1485 1486 1486 1487 1488 1489 1490 1490 1491 1491 1492 1492 1493 1493 1493 1492
1492 1493 1486 1475 1469 1469 1472 1469 1464 1463 1460 1458 1459 1459 1457 1457 1458 1460 1462 1465 1467 1470 1472 1474 1476 1477 1479 1480 1481 1482 1483 1484 1485 1487 1488 1488 1489 1490 1491 1491 1492 1492 1492 1492
1488 1487 1484 1472 1466 1465 1468 1468 1460 1459 1457 1456 1457 1460 1454 1452 1453 1456 1458 1461 1463 1465 1467 1469 1471 1473 1475 1476 1477 1479 1480 1482 1483 1484 1486 1487 1488 1489 1490 1490 1491 1491 1491 1491
1483 1483 1478 1467 1463 1465 1471 1466 1458 1456 1454 1453 1453 1453 1452 1451 1451 1453 1455 1457 1459 1461 1463 1465 1467 1469 1471 1472 1474 1476 1478 1479 1481 1482 1483 1485 1486 1487 1488 1489 1489 1490 1490 1490
1480 1480 1476 1462 1463 1465 1463 1458 1457 1455 1453 1452 1451 1451 1451 1451 1451 1452 1454 1455 1457 1459 1460 1462 1464 1466 1467 1469 1472 1473 1475 1476 1478 1480 1481 1483 1484 1485 1486 1487 1488 1488 1488 1488
1472 1469 1461 1460 1459 1459 1458 1457 1456 1454 1453 1452 1451 1451 1451 1451 1452 1453 1454 1455 1456 1457 1459 1460 1462 1463 1465 1467 1469 1470 1472 1474 1476 1477 1479 1480 1482 1483 1484 1485 1485 1486 1486 1486
1467 1462 1458 1457 1456 1456 1455 1455 1454 1454 1453 1452 1452 1452 1452 1452 1452 1453 1453 1454 1455 1455 1456 1458 1459 1461 1462 1464 1465 1467 1469 1471 1473 1474 1476 1477 1479 1480 1481 1482 1483 1483 1483 1483
1464 1460 1456 1454 1454 1453 1453 1452 1452 1452 1452 1451 1451 1451 1451 1451 1451 1452 1452 1452 1453 1453 1454 1455 1457 1458 1459 1460 1462 1464 1465 1467 1469 1471 1473 1474 1476 1477 1478 1479 1480 1480 1480 1480
1461 1458 1458 1454 1453 1452 1451 1450 1450 1450 1450 1450 1450 1450 1450 1450 1450 1450 1450 1450 1451 1451 1452 1452 1453 1454 1455 1457 1458 1460 1461 1463 1465 1467 1469 1471 1472 1473 1474 1475 1476 1476 1476 1476
1458 1456 1455 1453 1451 1450 1449 1449 1449 1449 1448 1448 1448 1448 1448 1448 1448 1448 1448 1448 1448 1448 1448 1449 1449 1450 1451 1453 1454 1455 1457 1459 1461 1463 1465 1466 1468 1469 1470 1472 1472 1472 1472 1472
1455 1454 1451 1450 1449 1448 1448 1447 1447 1447 1447 1447 1447 1446 1446 1446 1446 1445 1445 1445 1445 1444 1444 1445 1445 1446 1447 1448 1449 1450 1452 1454 1456 1458 1460 1462 1464 1465 1466 1467 1467 1467 1468 1468
1452 1451 1449 1448 1447 1446 1445 1445 1445 1445 1445 1444 1444 1444 1444 1443 1443 1442 1442 1441 1441 1441 1441 1441 1441 1442 1443 1443 1444 1445 1447 1449 1451 1453 1455 1457 1459 1460 1461 1461 1462 1463 1463 1463
1448 1447 1445 1444 1444 1443 1443 1442 1442 1442 1442 1442 1442 1441 1441 1440 1440 1439 1438 1438 1437 1437 1437 1436 1437 1437 1438 1438 1439 1440 1442 1444 1446 1447 1449 1451 1452 1453 1454 1455 1456 1457 1457 1458
1445 1443 1442 1441 1441 1440 1440 1440 1440 1440 1439 1439 1439 1438 1437 1437 1436 1435 1435 1434 1433 1433 1433 1432 1432 1433 1433 1433 1434 1435 1436 1438 1439 1441 1442 1444 1445 1447 1448 1449 1450 1451 1452 1452
1443 1441 1440 1439 1438 1438 1437 1438 1438 1437 1437 1436 1436 1435 1434 1434 1433 1432 1431 1430 1430 1429 1429 1428 1428 1428 1428 1428 1429 1429 1430 1431 1433 1434 1436 1437 1439 1440 1441 1442 1443 1444 1445 1446
1441 1439 1438 1437 1436 1436 1435 1435 1435 1435 1435 1434 1434 1433 1432 1431 1430 1429 1428 1427 1426 1425 1425 1424 1424 1423 1423 1423 1424 1424 1425 1425 1426 1428 1429 1430 1432 1433 1434 1435 1435 1437 1437 1438
1440 1438 1437 1436 1435 1435 1434 1434 1434 1433 1433 1432 1431 1430 1429 1428 1427 1426 1425 1424 1423 1422 1421 1420 1419 1419 1419 1419 1419 1419 1419 1419 1420 1421 1422 1423 1424 1425 1426 1427 1428 1429 1430 1430
1440 1438 1437 1436 1435 1434 1434 1433 1433 1432 1431 1430 1429 1428 1427 1426 1425 1424 1422 1421 1420 1419 1418 1417 1416 1415 1414 1414 1414 1414 1414 1414 1414 1415 1415 1416 1417 1418 1418 1419 1420 1421 1422 1423
1440 1438 1437 1436 1435 1434 1434 1433 1432 1431 1430 1429 1428 1427 1426 1424 1423 1422 1420 1419 1417 1416 1415 1413 1412 1411 1410 1409 1409 1409 1408 1408 1408 1409 1409 1409 1410 1410 1411 1412 1413 1414 1415 1415
1439 1438 1437 1436 1435 1434 1433 1432 1431 1430 1429 1428 1427 1425 1424 1423 1421 1420 1418 1417 1415 1413 1411 1410 1408 1407 1406 1405 1404 1404 1403 1403 1403 1403 1403 1403 1403 1404 1405 1405 1406 1407 1408 1409
1438 1437 1436 1435 1434 1432 1432 1431 1430 1429 1428 1426 1425 1424 1422 1421 1419 1418 1416 1414 1412 1410 1408 1407 1405 1404 1402 1401 1400 1400 1399 1398 1398 1398 1398 1397 1398 1398 1399 1399 1400 1401 1402 1402
1435 1434 1433 1432 1431 1430 1429 1428 1427 1426 1425 1424 1423 1422 1420 1419 1417 1415 1413 1411 1409 1407 1406 1404 1402 1401 1399 1398 1397 1396 1395 1394 1394 1393 1393 1393 1393 1393 1393 1394 1394 1395 1395 1396
1432 1431 1430 1429 1428 1427 1426 1425 1424 1423 1422 1421 1420 1419 1418 1416 1414 1413 1411 1409 1407 1405 1403 1401 1399 1398 1396 1395 1393 1392 1391 1390 1390 1389 1389 1388 1388 1388 1388 1389 1389 1389 1390 1390
1428 1427 1426 1425 1425 1424 1422 1421 1421 1420 1419 1418 1417 1416 1415 1413 1412 1410 1408 1406 1404 1402 1400 1398 1397 1395 1393 1391 1390 1389 1388 1387 1386 1385 1384 1384 1384 1383 1383 1384 1384 1384 1384 1384